Powrót do katalogu

AO-27

EYESAT A

AktywnyKrótkofalarstwoSSO
NORAD 22825·PAYLOAD·🇺🇸 United States

Wystrzelony Sep 26, 1993 z Guiana Space Centre

Loading…

Następne Przeloty (najbliższe 24 godziny)

TLE

ŚwieżeSource: Space-Track

Epoka: Sep 14, 2026, 10:21 UTC

1 22825U 93061C   26257.43183635  .00000066  00000-0  42092-4 0  9996
2 22825  98.6797 324.7758 0008151 190.9932 169.1074 14.30961131719768

Śledź AO-27 w czasie rzeczywistym z AllMySat

Download on the App Store